Time,TemperatureF,DewpointF,PressureIn,WindDirection,WindDirectionDegrees,WindSpeedMPH,WindSpeedGustMPH,Humidity,HourlyPrecipIn,Conditions,Clouds,dailyrainin,SoftwareType,DateUTC
2013-01-25 00:02:00,22.0,9.0,-100.00,SSE,165,6.0,9.0,56,0.00,,,-99.99,,2013-01-25 06:02:00,
2013-01-25 00:11:00,22.0,9.0,-100.00,South,190,7.0,10.0,56,0.00,,,-99.99,,2013-01-25 06:11:00,
2013-01-25 00:21:00,22.0,9.0,-100.00,SSW,195,7.0,11.0,56,0.00,,,-99.99,,2013-01-25 06:21:00,
2013-01-25 00:32:00,22.0,9.0,-100.00,South,185,5.0,7.0,56,0.00,,,-99.99,,2013-01-25 06:32:00,
2013-01-25 00:41:00,22.0,9.0,-100.00,South,185,5.0,7.0,56,0.00,,,-99.99,,2013-01-25 06:41:00,
2013-01-25 00:51:00,22.0,9.0,-100.00,SW,220,4.0,6.0,56,0.00,,,-99.99,,2013-01-25 06:51:00,
2013-01-25 01:02:00,22.0,9.0,-100.00,SW,220,4.0,6.0,56,0.00,,,-99.99,,2013-01-25 07:02:00,
2013-01-25 01:11:00,22.0,9.0,-100.00,SSW,205,6.0,7.0,56,0.00,,,-99.99,,2013-01-25 07:11:00,
2013-01-25 01:21:00,22.0,9.0,-100.00,SW,215,4.0,7.0,57,0.00,,,-99.99,,2013-01-25 07:21:00,
2013-01-25 01:32:00,21.0,9.0,-100.00,SSW,210,3.0,4.0,57,0.00,,,-99.99,,2013-01-25 07:32:00,
2013-01-25 01:42:00,21.0,9.0,-100.00,SSW,210,3.0,4.0,57,0.00,,,-99.99,,2013-01-25 07:42:00,
2013-01-25 01:51:00,21.0,9.0,-100.00,SSW,195,4.0,6.0,58,0.00,,,-99.99,,2013-01-25 07:51:00,
2013-01-25 02:01:00,21.0,9.0,-100.00,SSW,195,4.0,6.0,58,0.00,,,-99.99,,2013-01-25 08:01:00,
2013-01-25 02:11:00,21.0,9.0,-100.00,SSW,200,6.0,7.0,59,0.00,,,-99.99,,2013-01-25 08:11:00,
2013-01-25 02:21:00,21.0,9.0,-100.00,South,190,4.0,7.0,60,0.00,,,-99.99,,2013-01-25 08:21:00,
2013-01-25 02:32:00,20.0,9.0,-100.00,SSW,195,4.0,6.0,61,0.00,,,-99.99,,2013-01-25 08:32:00,
2013-01-25 02:41:00,20.0,9.0,-100.00,SSW,195,4.0,6.0,61,0.00,,,-99.99,,2013-01-25 08:41:00,
2013-01-25 02:52:00,20.0,9.0,-100.00,SSW,195,4.0,6.0,63,0.00,,,-99.99,,2013-01-25 08:52:00,
2013-01-25 03:01:00,20.0,9.0,-100.00,SSW,195,4.0,6.0,63,0.00,,,-99.99,,2013-01-25 09:01:00,
2013-01-25 03:11:00,20.0,9.0,-100.00,SSW,210,4.0,5.0,64,0.00,,,-99.99,,2013-01-25 09:11:00,
2013-01-25 03:21:00,19.0,9.0,-100.00,SW,220,4.0,5.0,64,0.00,,,-99.99,,2013-01-25 09:21:00,
2013-01-25 03:31:00,19.0,9.0,-100.00,SW,230,5.0,6.0,64,0.00,,,-99.99,,2013-01-25 09:31:00,
2013-01-25 03:41:00,19.0,9.0,-100.00,SW,230,5.0,6.0,64,0.00,,,-99.99,,2013-01-25 09:41:00,
2013-01-25 03:51:00,19.0,9.0,-100.00,SW,230,6.0,6.0,63,0.00,,,-99.99,,2013-01-25 09:51:00,
2013-01-25 04:02:00,19.0,9.0,-100.00,SW,230,6.0,6.0,63,0.00,,,-99.99,,2013-01-25 10:02:00,
2013-01-25 04:12:00,19.0,9.0,-100.00,WSW,245,4.0,6.0,63,0.00,,,-99.99,,2013-01-25 10:12:00,
2013-01-25 04:21:00,18.0,9.0,-100.00,WSW,245,4.0,4.0,64,0.00,,,-99.99,,2013-01-25 10:21:00,
2013-01-25 04:32:00,19.0,9.0,-100.00,WSW,240,4.0,4.0,64,0.00,,,-99.99,,2013-01-25 10:32:00,
2013-01-25 04:42:00,19.0,9.0,-100.00,WSW,240,4.0,4.0,64,0.00,,,-99.99,,2013-01-25 10:42:00,
2013-01-25 04:51:00,19.0,9.0,-100.00,SW,235,4.0,4.0,64,0.00,,,-99.99,,2013-01-25 10:51:00,
2013-01-25 05:02:00,19.0,9.0,-100.00,SW,235,4.0,4.0,64,0.00,,,-99.99,,2013-01-25 11:02:00,
2013-01-25 05:11:00,19.0,9.0,-100.00,SW,230,4.0,5.0,64,0.00,,,-99.99,,2013-01-25 11:11:00,
2013-01-25 05:22:00,19.0,9.0,-100.00,SW,220,4.0,6.0,64,0.00,,,-99.99,,2013-01-25 11:22:00,
2013-01-25 05:32:00,18.0,9.0,-100.00,SW,220,6.0,7.0,66,0.00,,,-99.99,,2013-01-25 11:32:00,
2013-01-25 05:42:00,18.0,9.0,-100.00,SW,220,6.0,7.0,66,0.00,,,-99.99,,2013-01-25 11:42:00,
2013-01-25 05:52:00,18.0,9.0,-100.00,SW,220,4.0,4.0,66,0.00,,,-99.99,,2013-01-25 11:52:00,
2013-01-25 06:02:00,18.0,9.0,-100.00,SW,220,4.0,4.0,66,0.00,,,-99.99,,2013-01-25 12:02:00,
2013-01-25 06:11:00,18.0,8.0,-100.00,SW,225,4.0,6.0,66,0.00,,,-99.99,,2013-01-25 12:11:00,
2013-01-25 06:22:00,18.0,9.0,-100.00,SW,215,2.0,4.0,66,0.00,,,-99.99,,2013-01-25 12:22:00,
2013-01-25 06:32:00,18.0,9.0,-100.00,South,190,0.0,1.0,67,0.00,,,-99.99,,2013-01-25 12:32:00,
2013-01-25 06:42:00,18.0,9.0,-100.00,South,190,0.0,1.0,67,0.00,,,-99.99,,2013-01-25 12:42:00,
2013-01-25 06:52:00,18.0,9.0,-100.00,West,265,1.0,2.0,67,0.00,,,-99.99,,2013-01-25 12:52:00,
2013-01-25 07:02:00,18.0,9.0,-100.00,West,265,1.0,2.0,67,0.00,,,-99.99,,2013-01-25 13:02:00,
2013-01-25 07:11:00,18.0,9.0,-100.00,WSW,240,1.0,3.0,67,0.00,,,-99.99,,2013-01-25 13:11:00,
2013-01-25 07:22:00,18.0,9.0,-100.00,SW,230,2.0,2.0,67,0.00,,,-99.99,,2013-01-25 13:22:00,
2013-01-25 07:32:00,18.0,9.0,-100.00,SW,230,2.0,4.0,67,0.00,,,-99.99,,2013-01-25 13:32:00,
2013-01-25 07:42:00,18.0,9.0,-100.00,SW,230,2.0,4.0,67,0.00,,,-99.99,,2013-01-25 13:42:00,
2013-01-25 07:52:00,18.0,9.0,-100.00,West,265,4.0,6.0,67,0.00,,,-99.99,,2013-01-25 13:52:00,
2013-01-25 08:03:00,18.0,9.0,-100.00,West,265,4.0,6.0,67,0.00,,,-99.99,,2013-01-25 14:03:00,
2013-01-25 08:12:00,18.0,9.0,-100.00,West,275,4.0,5.0,67,0.00,,,-99.99,,2013-01-25 14:12:00,
2013-01-25 08:22:00,18.0,9.0,-100.00,WNW,285,2.0,4.0,66,0.00,,,-99.99,,2013-01-25 14:22:00,
2013-01-25 08:32:00,20.0,10.0,-100.00,NW,320,1.0,2.0,65,0.00,,,-99.99,,2013-01-25 14:32:00,
2013-01-25 08:42:00,20.0,10.0,-100.00,NW,320,1.0,2.0,65,0.00,,,-99.99,,2013-01-25 14:42:00,
2013-01-25 08:52:00,22.0,12.0,-100.00,NW,325,0.0,2.0,64,0.00,,,-99.99,,2013-01-25 14:52:00,
2013-01-25 09:02:00,22.0,12.0,-100.00,NW,325,0.0,2.0,64,0.00,,,-99.99,,2013-01-25 15:02:00,
2013-01-25 09:12:00,22.0,12.0,-100.00,NNW,340,1.0,4.0,64,0.00,,,-99.99,,2013-01-25 15:12:00,
2013-01-25 09:22:00,22.0,12.0,-100.00,North,350,2.0,4.0,64,0.00,,,-99.99,,2013-01-25 15:22:00,
2013-01-25 09:32:00,24.0,14.0,-100.00,North,350,3.0,4.0,63,0.00,,,-99.99,,2013-01-25 15:32:00,
2013-01-25 09:42:00,24.0,14.0,-100.00,North,350,3.0,4.0,63,0.00,,,-99.99,,2013-01-25 15:42:00,
2013-01-25 09:52:00,26.0,15.0,-100.00,North,0,5.0,7.0,63,0.00,,,-99.99,,2013-01-25 15:52:00,
2013-01-25 10:03:00,26.0,15.0,-100.00,North,0,5.0,7.0,63,0.00,,,-99.99,,2013-01-25 16:03:00,
2013-01-25 10:12:00,27.0,17.0,-100.00,NNW,345,5.0,9.0,63,0.00,,,-99.99,,2013-01-25 16:12:00,
2013-01-25 10:22:00,29.0,17.0,-100.00,North,355,7.0,9.0,62,0.00,,,-99.99,,2013-01-25 16:22:00,
2013-01-25 10:32:00,31.0,20.0,-100.00,North,0,7.0,11.0,61,0.00,,,-99.99,,2013-01-25 16:32:00,
2013-01-25 10:42:00,31.0,20.0,-100.00,North,0,7.0,11.0,61,0.00,,,-99.99,,2013-01-25 16:42:00,
2013-01-25 10:52:00,33.0,20.0,-100.00,North,0,7.0,9.0,59,0.00,,,-99.99,,2013-01-25 16:52:00,
2013-01-25 11:02:00,33.0,20.0,-100.00,North,0,7.0,9.0,59,0.00,,,-99.99,,2013-01-25 17:02:00,
2013-01-25 11:12:00,34.0,22.0,-100.00,NNW,335,5.0,9.0,59,0.00,,,-99.99,,2013-01-25 17:12:00,
2013-01-25 11:22:00,36.0,22.0,-100.00,North,0,3.0,7.0,57,0.00,,,-99.99,,2013-01-25 17:22:00,
2013-01-25 11:32:00,38.0,24.0,-100.00,North,0,6.0,11.0,55,0.00,,,-99.99,,2013-01-25 17:32:00,
2013-01-25 11:42:00,38.0,24.0,-100.00,North,0,6.0,11.0,55,0.00,,,-99.99,,2013-01-25 17:42:00,
2013-01-25 11:52:00,40.0,25.0,-100.00,North,355,9.0,17.0,53,0.00,,,-99.99,,2013-01-25 17:52:00,
2013-01-25 12:03:00,40.0,25.0,-100.00,North,355,9.0,17.0,53,0.00,,,-99.99,,2013-01-25 18:03:00,
2013-01-25 12:11:00,41.0,26.0,-100.00,NNW,340,9.0,14.0,52,0.00,,,-99.99,,2013-01-25 18:11:00,
2013-01-25 12:23:00,41.0,25.0,-100.00,North,350,9.0,15.0,52,0.00,,,-99.99,,2013-01-25 18:23:00,
2013-01-25 12:33:00,44.0,27.0,-100.00,NNW,340,8.0,14.0,50,0.00,,,-99.99,,2013-01-25 18:33:00,
2013-01-25 12:42:00,44.0,27.0,-100.00,NNW,340,8.0,14.0,50,0.00,,,-99.99,,2013-01-25 18:42:00,
2013-01-25 12:52:00,44.0,26.0,-100.00,North,350,6.0,12.0,49,0.00,,,-99.99,,2013-01-25 18:52:00,
2013-01-25 13:03:00,46.0,28.0,-100.00,North,0,10.0,14.0,48,0.00,,,-99.99,,2013-01-25 19:03:00,
2013-01-25 13:12:00,46.0,27.0,-100.00,North,0,17.0,21.0,46,0.00,,,-99.99,,2013-01-25 19:12:00,
2013-01-25 13:22:00,47.0,27.0,-100.00,North,0,15.0,21.0,45,0.00,,,-99.99,,2013-01-25 19:22:00,
2013-01-25 13:32:00,46.0,26.0,-100.00,North,5,18.0,21.0,43,0.00,,,-99.99,,2013-01-25 19:32:00,
2013-01-25 13:42:00,46.0,26.0,-100.00,North,5,18.0,21.0,43,0.00,,,-99.99,,2013-01-25 19:42:00,
2013-01-25 13:52:00,47.0,26.0,-100.00,North,0,14.0,17.0,42,0.00,,,-99.99,,2013-01-25 19:52:00,
2013-01-25 14:02:00,47.0,26.0,-100.00,North,0,14.0,17.0,42,0.00,,,-99.99,,2013-01-25 20:02:00,
2013-01-25 14:12:00,48.0,26.0,-100.00,NNE,20,14.0,19.0,42,0.00,,,-99.99,,2013-01-25 20:12:00,
2013-01-25 14:22:00,48.0,26.0,-100.00,North,0,12.0,19.0,42,0.00,,,-99.99,,2013-01-25 20:22:00,
2013-01-25 14:32:00,47.0,25.0,-100.00,North,0,12.0,18.0,41,0.00,,,-99.99,,2013-01-25 20:32:00,
2013-01-25 14:42:00,47.0,25.0,-100.00,North,0,12.0,18.0,41,0.00,,,-99.99,,2013-01-25 20:42:00,
2013-01-25 14:52:00,49.0,26.0,-100.00,North,0,12.0,16.0,40,0.00,,,-99.99,,2013-01-25 20:52:00,
2013-01-25 15:02:00,49.0,26.0,-100.00,North,0,12.0,16.0,40,0.00,,,-99.99,,2013-01-25 21:02:00,
2013-01-25 15:11:00,49.0,26.0,-100.00,NNW,340,12.0,14.0,40,0.00,,,-99.99,,2013-01-25 21:11:00,
2013-01-25 15:22:00,49.0,26.0,-100.00,North,5,9.0,12.0,39,0.00,,,-99.99,,2013-01-25 21:22:00,
2013-01-25 15:32:00,50.0,26.0,-100.00,NNW,335,9.0,12.0,38,0.00,,,-99.99,,2013-01-25 21:32:00,
2013-01-25 15:42:00,50.0,26.0,-100.00,NNW,335,9.0,12.0,38,0.00,,,-99.99,,2013-01-25 21:42:00,
2013-01-25 15:52:00,50.0,26.0,-100.00,North,0,7.0,10.0,38,0.00,,,-99.99,,2013-01-25 21:52:00,
2013-01-25 16:02:00,50.0,26.0,-100.00,North,0,7.0,10.0,38,0.00,,,-99.99,,2013-01-25 22:02:00,
2013-01-25 16:11:00,50.0,25.0,-100.00,North,10,7.0,9.0,38,0.00,,,-99.99,,2013-01-25 22:11:00,
2013-01-25 16:22:00,50.0,26.0,-100.00,North,0,7.0,9.0,38,0.00,,,-99.99,,2013-01-25 22:22:00,
2013-01-25 16:32:00,49.0,25.0,-100.00,North,0,7.0,9.0,38,0.00,,,-99.99,,2013-01-25 22:32:00,
2013-01-25 16:42:00,49.0,25.0,-100.00,North,0,7.0,9.0,38,0.00,,,-99.99,,2013-01-25 22:42:00,
2013-01-25 16:51:00,46.0,24.0,-100.00,NNW,340,4.0,6.0,40,0.00,,,-99.99,,2013-01-25 22:51:00,
2013-01-25 17:02:00,46.0,24.0,-100.00,NNW,340,4.0,6.0,40,0.00,,,-99.99,,2013-01-25 23:02:00,
2013-01-25 17:11:00,46.0,24.0,-100.00,NNW,345,4.0,6.0,41,0.00,,,-99.99,,2013-01-25 23:11:00,
2013-01-25 17:22:00,45.0,24.0,-100.00,NNW,345,5.0,7.0,41,0.52,,,-99.99,,2013-01-25 23:22:00,
2013-01-25 17:32:00,45.0,24.0,-100.00,North,5,6.0,7.0,42,0.00,,,-99.99,,2013-01-25 23:32:00,
2013-01-25 17:42:00,45.0,24.0,-100.00,North,5,6.0,7.0,42,0.00,,,-99.99,,2013-01-25 23:42:00,
2013-01-25 17:52:00,43.0,22.0,-100.00,NNE,15,8.0,9.0,43,0.00,,,-99.99,,2013-01-25 23:52:00,
2013-01-25 18:02:00,43.0,22.0,-100.00,NNE,15,8.0,9.0,43,0.00,,,-99.99,,2013-01-26 00:02:00,
2013-01-25 18:11:00,42.0,22.0,-100.00,NNE,20,6.0,9.0,44,0.00,,,-99.99,,2013-01-26 00:11:00,
2013-01-25 18:22:00,41.0,22.0,-100.00,NNE,30,6.0,7.0,45,0.00,,,-99.99,,2013-01-26 00:22:00,
2013-01-25 18:32:00,36.0,19.0,-100.00,NE,50,11.0,11.0,49,0.00,,,-99.99,,2013-01-26 00:32:00,
2013-01-25 18:42:00,36.0,19.0,-100.00,NE,50,11.0,11.0,49,0.00,,,-99.99,,2013-01-26 00:42:00,
2013-01-25 18:52:00,35.0,20.0,-100.00,West,265,4.0,6.0,53,0.00,,,-99.99,,2013-01-26 00:52:00,
2013-01-25 19:01:00,35.0,20.0,-100.00,West,265,4.0,6.0,53,0.00,,,-99.99,,2013-01-26 01:01:00,
2013-01-25 19:11:00,33.0,19.0,-100.00,WNW,290,3.0,6.0,56,0.00,,,-99.99,,2013-01-26 01:11:00,
2013-01-25 19:22:00,37.0,23.0,-100.00,NNW,345,4.0,6.0,56,0.00,,,-99.99,,2013-01-26 01:22:00,
2013-01-25 19:32:00,37.0,23.0,-100.00,North,350,3.0,5.0,56,0.00,,,-99.99,,2013-01-26 01:32:00,
2013-01-25 19:42:00,37.0,23.0,-100.00,North,350,3.0,5.0,56,0.00,,,-99.99,,2013-01-26 01:42:00,
2013-01-25 19:52:00,36.0,22.0,-100.00,NNW,345,4.0,7.0,56,0.00,,,-99.99,,2013-01-26 01:52:00,
2013-01-25 20:01:00,36.0,22.0,-100.00,NNW,345,4.0,7.0,56,0.00,,,-99.99,,2013-01-26 02:01:00,
2013-01-25 20:11:00,35.0,22.0,-100.00,NNW,330,4.0,4.0,58,0.00,,,-99.99,,2013-01-26 02:11:00,
2013-01-25 20:22:00,36.0,23.0,-100.00,NNW,345,4.0,4.0,58,0.00,,,-99.99,,2013-01-26 02:22:00,
2013-01-25 20:32:00,36.0,24.0,-100.00,NNW,345,3.0,4.0,58,0.00,,,-99.99,,2013-01-26 02:32:00,
2013-01-25 20:42:00,36.0,24.0,-100.00,NNW,345,3.0,4.0,58,0.00,,,-99.99,,2013-01-26 02:42:00,
2013-01-25 20:52:00,35.0,23.0,-100.00,West,280,2.0,3.0,59,0.00,,,-99.99,,2013-01-26 02:52:00,
2013-01-25 21:02:00,35.0,23.0,-100.00,West,280,2.0,3.0,59,0.00,,,-99.99,,2013-01-26 03:02:00,
2013-01-25 21:11:00,35.0,23.0,-100.00,North,0,1.0,2.0,60,0.00,,,-99.99,,2013-01-26 03:11:00,
2013-01-25 21:21:00,35.0,23.0,-100.00,ENE,60,2.0,3.0,61,0.00,,,-99.99,,2013-01-26 03:21:00,
2013-01-25 21:31:00,35.0,23.0,-100.00,ENE,75,2.0,3.0,62,0.00,,,-99.99,,2013-01-26 03:31:00,
2013-01-25 21:42:00,35.0,23.0,-100.00,ENE,75,2.0,3.0,62,0.00,,,-99.99,,2013-01-26 03:42:00,
2013-01-25 21:51:00,31.0,21.0,-100.00,ESE,115,3.0,5.0,66,0.00,,,-99.99,,2013-01-26 03:51:00,
2013-01-25 22:02:00,31.0,21.0,-100.00,ESE,115,3.0,5.0,66,0.00,,,-99.99,,2013-01-26 04:02:00,
2013-01-25 22:12:00,31.0,21.0,-100.00,East,95,4.0,4.0,66,0.00,,,-99.99,,2013-01-26 04:12:00,
2013-01-25 22:21:00,30.0,21.0,-100.00,ENE,65,2.0,4.0,67,0.00,,,-99.99,,2013-01-26 04:21:00,
2013-01-25 22:32:00,30.0,20.0,-100.00,ENE,75,7.0,9.0,67,0.00,,,-99.99,,2013-01-26 04:32:00,
2013-01-25 22:42:00,30.0,20.0,-100.00,ENE,75,7.0,9.0,67,0.00,,,-99.99,,2013-01-26 04:42:00,
2013-01-25 22:52:00,27.0,19.0,-100.00,East,85,8.0,9.0,71,0.00,,,-99.99,,2013-01-26 04:52:00,
2013-01-25 23:03:00,27.0,19.0,-100.00,East,85,8.0,9.0,71,0.00,,,-99.99,,2013-01-26 05:03:00,
2013-01-25 23:12:00,28.0,20.0,-100.00,East,80,7.0,9.0,72,0.00,,,-99.99,,2013-01-26 05:12:00,
2013-01-25 23:23:00,28.0,21.0,-100.00,East,80,7.0,9.0,73,0.00,,,-99.99,,2013-01-26 05:23:00,
2013-01-25 23:33:00,28.0,21.0,-100.00,ENE,75,7.0,9.0,74,0.00,,,-99.99,,2013-01-26 05:33:00,
2013-01-25 23:41:00,28.0,21.0,-100.00,ENE,75,7.0,9.0,74,0.00,,,-99.99,,2013-01-26 05:41:00,
2013-01-25 23:52:00,28.0,21.0,-100.00,ENE,70,6.0,11.0,76,0.00,,,-99.99,,2013-01-26 05:52:00,